This is the latest recevied weather packets stored in our database for station/object KA0EGE. If no packets are shown the sender has not sent any weather packets the latest 10 day(s).
| Time | Temp. | Humidity | Pressure | Rain* | Wind** | Luminosity | Snow |
|---|---|---|---|---|---|---|---|
| 1777057916 | 27.78° C | 49% | 1015.7 hPa | 0 mm | - | 812 W/m² | - |
| 1777057612 | 27.22° C | 52% | 1015.6 hPa | 0 mm | - | 821 W/m² | - |
| 1777057308 | 27.22° C | 52% | 1015.7 hPa | 0 mm | - | 834 W/m² | - |
| 1777057003 | 27.78° C | 53% | 1015.6 hPa | 0 mm | - | 757 W/m² | - |
| 1777056702 | 27.78° C | 53% | 1015.7 hPa | 0 mm | - | 843 W/m² | - |
| 1777056399 | 27.22° C | 51% | 1015.7 hPa | 0 mm | - | 844 W/m² | - |
| 1777056094 | 27.78° C | 49% | 1015.8 hPa | 0 mm | - | 835 W/m² | - |
| 1777055791 | 27.22° C | 52% | 1015.8 hPa | 0 mm | - | 854 W/m² | - |
| 1777055487 | 27.22° C | 51% | 1015.8 hPa | 0 mm | - | 835 W/m² | - |
| 1777055181 | 27.78° C | 51% | 1015.7 hPa | 0 mm | - | 873 W/m² | - |
| 1777054875 | 27.78° C | 51% | 1015.7 hPa | 0 mm | - | 797 W/m² | - |
| 1777054572 | 27.22° C | 52% | 1015.9 hPa | 0 mm | - | 837 W/m² | - |
| 1777054269 | 27.22° C | 53% | 1016 hPa | 0 mm | - | 870 W/m² | - |
| 1777053969 | 27.78° C | 51% | 1016.2 hPa | 0 mm | - | 876 W/m² | - |
| 1777053663 | 27.22° C | 54% | 1016.1 hPa | 0 mm | - | 874 W/m² | - |
| 1777053363 | 27.78° C | 54% | 1016.3 hPa | 0 mm | - | 896 W/m² | - |
| 1777053058 | 27.22° C | 52% | 1016.2 hPa | 0 mm | - | 892 W/m² | - |
| 1777052755 | 27.78° C | 51% | 1016.4 hPa | 0 mm | - | 887 W/m² | - |
| 1777052454 | 27.78° C | 52% | 1016.1 hPa | 0 mm | - | 853 W/m² | - |
| 1777052151 | 27.22° C | 52% | 1016.3 hPa | 0 mm | - | 869 W/m² | - |
| 1777051850 | 27.22° C | 52% | 1016.2 hPa | 0 mm | - | 876 W/m² | - |
| 1777051550 | 26.67° C | 53% | 1016.4 hPa | 0 mm | - | 863 W/m² | - |
| 1777051246 | 27.22° C | 53% | 1016.3 hPa | 0 mm | - | 880 W/m² | - |
| 1777050941 | 27.78° C | 52% | 1016.7 hPa | 0 mm | - | 901 W/m² | - |
| 1777050638 | 27.22° C | 55% | 1016.6 hPa | 0 mm | - | 898 W/m² | - |
* Rain latest hour (hover to see other rain measurements)
** Current wind speed in m/s (hover to see current wind gust speed)